Time,TemperatureF,DewpointF,PressureIn,WindDirection,WindDirectionDegrees,WindSpeedMPH,WindSpeedGustMPH,Humidity,HourlyPrecipIn,Conditions,Clouds,dailyrainin,SoftwareType,DateUTC
2013-02-27 00:04:00,34.9,30.3,29.94,SW,234,0.0,0.0,83,0.00,,OVC095,-99.99,VWS V12.07,2013-02-27 05:04:00,
2013-02-27 00:05:00,34.9,30.3,29.94,SW,234,0.0,0.0,83,0.00,,OVC095,-99.99,VWS V12.07,2013-02-27 05:05:00,
2013-02-27 00:12:00,34.9,30.3,29.94,SW,234,0.0,0.0,83,0.00,,OVC095,-99.99,VWS V12.07,2013-02-27 05:12:00,
2013-02-27 00:22:00,34.9,30.3,29.93,SW,234,0.0,0.0,83,0.00,,OVC095,-99.99,VWS V12.07,2013-02-27 05:22:00,
2013-02-27 00:34:00,33.4,31.3,29.91,SW,234,0.0,0.0,92,0.00,,OVC095,-99.99,VWS V12.07,2013-02-27 05:34:00,
2013-02-27 00:42:00,33.4,31.3,29.91,SW,234,0.0,0.0,92,0.00,,OVC095,-99.99,VWS V12.07,2013-02-27 05:42:00,
2013-02-27 00:52:00,33.2,31.4,29.92,SW,234,0.0,0.0,93,0.00,,OVC095,-99.99,VWS V12.07,2013-02-27 05:52:00,
2013-02-27 01:04:00,33.2,31.4,29.92,SW,234,0.0,0.0,93,0.00,,OVC095,-99.99,VWS V12.07,2013-02-27 06:04:00,
2013-02-27 01:12:00,33.2,31.4,29.92,SW,234,0.0,1.0,93,0.00,,OVC095,-99.99,VWS V12.07,2013-02-27 06:12:00,
2013-02-27 01:22:00,33.2,31.4,29.92,SW,234,0.0,2.0,93,0.00,,OVC095,-99.99,VWS V12.07,2013-02-27 06:22:00,
2013-02-27 01:33:00,33.1,31.6,29.93,SW,234,0.0,2.0,94,0.00,,OVC095,-99.99,VWS V12.07,2013-02-27 06:33:00,
2013-02-27 01:42:00,33.1,31.6,29.93,SW,234,0.0,2.0,94,0.00,,OVC095,-99.99,VWS V12.07,2013-02-27 06:42:00,
2013-02-27 01:52:00,33.1,31.6,29.92,SW,234,0.0,2.0,94,0.00,,OVC095,-99.99,VWS V12.07,2013-02-27 06:52:00,
2013-02-27 02:04:00,33.1,31.6,29.91,SW,234,1.0,1.0,94,0.00,,OVC095,-99.99,VWS V12.07,2013-02-27 07:04:00,
2013-02-27 02:12:00,33.2,31.9,29.91,SW,234,0.0,2.0,95,0.00,,OVC095,-99.99,VWS V12.07,2013-02-27 07:12:00,
2013-02-27 02:22:00,33.1,31.8,29.88,SW,234,0.0,2.0,95,0.00,,OVC095,-99.99,VWS V12.07,2013-02-27 07:22:00,
2013-02-27 02:34:00,32.9,31.6,29.88,SW,234,0.0,1.0,95,0.00,,OVC095,-99.99,VWS V12.07,2013-02-27 07:34:00,
2013-02-27 02:42:00,33.2,31.9,29.88,SW,233,0.0,1.0,95,0.00,,OVC095,-99.99,VWS V12.07,2013-02-27 07:42:00,
2013-02-27 02:52:00,33.2,31.9,29.85,WSW,247,0.0,2.0,95,0.00,,OVC095,-99.99,VWS V12.07,2013-02-27 07:52:00,
2013-02-27 03:03:00,33.1,32.1,29.85,WSW,246,0.0,0.0,96,0.00,,OVC095,-99.99,VWS V12.07,2013-02-27 08:03:00,
2013-02-27 03:12:00,33.2,32.2,29.85,West,280,0.0,2.0,96,0.00,,OVC095,-99.99,VWS V12.07,2013-02-27 08:12:00,
2013-02-27 03:22:00,33.4,32.4,29.83,West,280,0.0,2.0,96,0.00,,OVC095,-99.99,VWS V12.07,2013-02-27 08:22:00,
2013-02-27 03:31:00,33.4,32.4,29.83,North,359,0.0,1.0,96,0.00,,OVC095,-99.99,VWS V12.07,2013-02-27 08:31:00,
2013-02-27 03:42:00,33.4,32.4,29.83,North,359,0.0,2.0,96,0.00,,OVC095,-99.99,VWS V12.07,2013-02-27 08:42:00,
2013-02-27 03:52:00,33.2,32.2,29.82,North,359,0.0,2.0,96,0.00,,OVC095,-99.99,VWS V12.07,2013-02-27 08:52:00,
2013-02-27 04:04:00,33.4,32.4,29.81,ESE,102,1.0,1.0,96,0.00,,OVC095,-99.99,VWS V12.07,2013-02-27 09:04:00,
2013-02-27 04:12:00,33.4,32.4,29.81,East,99,0.0,1.0,96,0.00,,OVC095,-99.99,VWS V12.07,2013-02-27 09:12:00,
2013-02-27 04:22:00,33.5,32.5,29.80,West,265,0.0,1.0,96,0.00,,OVC095,-99.99,VWS V12.07,2013-02-27 09:22:00,
2013-02-27 04:33:00,33.4,32.4,29.78,West,265,0.0,0.0,96,0.00,,OVC095,-99.99,VWS V12.07,2013-02-27 09:33:00,
2013-02-27 04:42:00,33.4,32.4,29.78,West,261,0.0,3.0,96,0.00,,OVC095,-99.99,VWS V12.07,2013-02-27 09:42:00,
2013-02-27 04:52:00,33.4,32.4,29.78,West,261,0.0,3.0,96,0.00,,OVC095,-99.99,VWS V12.07,2013-02-27 09:52:00,
2013-02-27 05:03:00,33.5,32.5,29.78,West,261,0.0,0.0,96,0.00,,OVC095,-99.99,VWS V12.07,2013-02-27 10:03:00,
2013-02-27 05:12:00,33.5,32.5,29.78,West,261,0.0,0.0,96,0.00,,OVC095,-99.99,VWS V12.07,2013-02-27 10:12:00,
2013-02-27 05:22:00,33.5,32.5,29.77,West,261,0.0,0.0,96,0.00,,OVC095,-99.99,VWS V12.07,2013-02-27 10:22:00,
2013-02-27 05:33:00,33.5,32.7,29.76,West,261,0.0,0.0,97,0.00,,OVC095,-99.99,VWS V12.07,2013-02-27 10:33:00,
2013-02-27 05:42:00,33.5,32.7,29.76,West,261,0.0,0.0,97,0.00,,OVC095,-99.99,VWS V12.07,2013-02-27 10:42:00,
2013-02-27 05:52:00,33.7,32.9,29.75,NE,56,0.0,1.0,97,0.00,,OVC095,-99.99,VWS V12.07,2013-02-27 10:52:00,
2013-02-27 06:04:00,33.7,32.9,29.74,ENE,76,0.0,0.0,97,0.00,,OVC095,-99.99,VWS V12.07,2013-02-27 11:04:00,
2013-02-27 06:12:00,33.7,32.9,29.74,ENE,76,0.0,0.0,97,0.00,,OVC095,-99.99,VWS V12.07,2013-02-27 11:12:00,
2013-02-27 06:22:00,33.8,33.0,29.73,North,3,0.0,0.0,97,0.00,,OVC095,-99.99,VWS V12.07,2013-02-27 11:22:00,
2013-02-27 06:33:00,33.8,33.0,29.72,North,3,0.0,0.0,97,0.00,,OVC095,-99.99,VWS V12.07,2013-02-27 11:33:00,
2013-02-27 06:42:00,33.8,33.0,29.72,NNW,332,1.0,2.0,97,0.00,,OVC095,-99.99,VWS V12.07,2013-02-27 11:42:00,
2013-02-27 06:51:00,33.8,33.0,29.71,NNW,332,0.0,2.0,97,0.00,,OVC095,-99.99,VWS V12.07,2013-02-27 11:51:00,
2013-02-27 07:03:00,34.0,33.2,29.71,NNW,332,0.0,0.0,97,0.00,,OVC095,-99.99,VWS V12.07,2013-02-27 12:03:00,
2013-02-27 07:12:00,34.0,33.2,29.71,NNW,332,0.0,0.0,97,0.00,,OVC095,-99.99,VWS V12.07,2013-02-27 12:12:00,
2013-02-27 07:22:00,34.0,33.2,29.70,NNW,332,0.0,1.0,97,0.00,,OVC095,-99.99,VWS V12.07,2013-02-27 12:22:00,
2013-02-27 07:33:00,34.3,33.5,29.67,NNW,332,0.0,0.0,97,0.00,,OVC095,-99.99,VWS V12.07,2013-02-27 12:33:00,
2013-02-27 07:42:00,34.3,33.5,29.67,NNW,332,0.0,0.0,97,0.00,,OVC095,-99.99,VWS V12.07,2013-02-27 12:42:00,
2013-02-27 07:52:00,34.6,33.8,29.69,NNW,332,0.0,0.0,97,0.00,,OVC095,-99.99,VWS V12.07,2013-02-27 12:52:00,
2013-02-27 08:04:00,34.7,33.9,29.68,NNW,332,0.0,0.0,97,0.00,,OVC095,-99.99,VWS V12.07,2013-02-27 13:04:00,
2013-02-27 08:12:00,34.6,33.8,29.68,NNW,332,0.0,0.0,97,0.00,,OVC095,-99.99,VWS V12.07,2013-02-27 13:12:00,
2013-02-27 08:22:00,34.7,33.9,29.67,NNW,330,0.0,0.0,97,0.00,,OVC095,-99.99,VWS V12.07,2013-02-27 13:22:00,
2013-02-27 08:34:00,34.9,34.1,29.65,NNW,330,0.0,0.0,97,0.00,,OVC095,-99.99,VWS V12.07,2013-02-27 13:34:00,
2013-02-27 08:42:00,35.3,34.5,29.65,NNW,330,0.0,0.0,97,0.00,,OVC095,-99.99,VWS V12.07,2013-02-27 13:42:00,
2013-02-27 08:52:00,35.2,34.4,29.64,NNW,330,0.0,0.0,97,0.00,,OVC095,-99.99,VWS V12.07,2013-02-27 13:52:00,
2013-02-27 09:03:00,35.6,35.1,29.63,NNW,330,0.0,0.0,98,0.00,,OVC095,-99.99,VWS V12.07,2013-02-27 14:03:00,
2013-02-27 09:12:00,35.8,35.3,29.63,NW,325,0.0,2.0,98,0.00,,OVC095,-99.99,VWS V12.07,2013-02-27 14:12:00,
2013-02-27 09:22:00,36.3,35.8,29.62,NNE,30,0.0,2.0,98,0.00,,OVC095,-99.99,VWS V12.07,2013-02-27 14:22:00,
2013-02-27 09:33:00,36.3,35.8,29.61,West,274,0.0,0.0,98,0.00,,OVC095,-99.99,VWS V12.07,2013-02-27 14:33:00,
2013-02-27 09:42:00,36.6,36.1,29.61,SE,143,0.0,2.0,98,0.00,,OVC095,-99.99,VWS V12.07,2013-02-27 14:42:00,
2013-02-27 09:52:00,36.8,36.3,29.60,SE,141,0.0,2.0,98,0.00,,OVC095,-99.99,VWS V12.07,2013-02-27 14:52:00,
2013-02-27 10:04:00,37.2,36.7,29.59,North,349,1.0,2.0,98,0.00,,OVC095,-99.99,VWS V12.07,2013-02-27 15:04:00,
2013-02-27 10:12:00,37.6,37.1,29.59,SSE,165,1.0,2.0,98,0.00,,OVC095,-99.99,VWS V12.07,2013-02-27 15:12:00,
2013-02-27 10:22:00,38.0,37.5,29.59,ENE,62,0.0,2.0,98,0.00,,OVC095,-99.99,VWS V12.07,2013-02-27 15:22:00,
2013-02-27 10:34:00,38.0,37.5,29.59,West,280,0.0,2.0,98,0.00,,OVC095,-99.99,VWS V12.07,2013-02-27 15:34:00,
2013-02-27 10:42:00,38.0,37.5,29.59,West,280,0.0,2.0,98,0.00,,OVC095,-99.99,VWS V12.07,2013-02-27 15:42:00,
2013-02-27 10:52:00,38.0,37.5,29.58,West,280,0.0,2.0,98,0.00,,OVC095,-99.99,VWS V12.07,2013-02-27 15:52:00,
2013-02-27 11:04:00,38.0,37.5,29.56,NNW,340,0.0,3.0,98,0.00,,OVC095,-99.99,VWS V12.07,2013-02-27 16:04:00,
2013-02-27 11:12:00,38.5,38.0,29.56,WSW,251,0.0,3.0,98,0.00,,OVC095,-99.99,VWS V12.07,2013-02-27 16:12:00,
2013-02-27 11:22:00,38.9,38.4,29.55,WSW,251,0.0,3.0,98,0.00,,OVC095,-99.99,VWS V12.07,2013-02-27 16:22:00,
2013-02-27 11:33:00,39.5,39.0,29.55,North,357,0.0,0.0,98,0.00,,OVC095,-99.99,VWS V12.07,2013-02-27 16:33:00,
2013-02-27 11:42:00,39.8,39.3,29.55,SW,236,0.0,2.0,98,0.00,,OVC095,-99.99,VWS V12.07,2013-02-27 16:42:00,
2013-02-27 11:52:00,39.9,39.4,29.55,WSW,237,0.0,2.0,98,0.00,,OVC095,-99.99,VWS V12.07,2013-02-27 16:52:00,
2013-02-27 12:04:00,40.1,39.6,29.54,WSW,237,0.0,0.0,98,0.00,,OVC095,-99.99,VWS V12.07,2013-02-27 17:04:00,
2013-02-27 12:12:00,39.5,39.0,29.54,WSW,237,0.0,1.0,98,0.00,,OVC095,-99.99,VWS V12.07,2013-02-27 17:12:00,
2013-02-27 12:22:00,39.5,39.0,29.53,South,176,1.0,3.0,98,0.00,,OVC095,-99.99,VWS V12.07,2013-02-27 17:22:00,
2013-02-27 12:34:00,39.6,39.1,29.51,SSE,148,1.0,3.0,98,0.00,,OVC095,-99.99,VWS V12.07,2013-02-27 17:34:00,
2013-02-27 12:42:00,40.1,39.6,29.51,SSE,148,0.0,3.0,98,0.00,,OVC095,-99.99,VWS V12.07,2013-02-27 17:42:00,
2013-02-27 12:52:00,39.9,39.4,29.50,SSE,148,0.0,3.0,98,0.00,,OVC095,-99.99,VWS V12.07,2013-02-27 17:52:00,
2013-02-27 13:03:00,40.3,39.8,29.50,SSE,148,0.0,0.0,98,0.00,,OVC095,-99.99,VWS V12.07,2013-02-27 18:03:00,
2013-02-27 13:12:00,40.5,40.0,29.50,SSE,148,0.0,0.0,98,0.00,,OVC095,-99.99,VWS V12.07,2013-02-27 18:12:00,
2013-02-27 13:22:00,40.3,39.8,29.49,WSW,248,0.0,2.0,98,0.00,,OVC095,-99.99,VWS V12.07,2013-02-27 18:22:00,
2013-02-27 13:33:00,40.9,40.4,29.47,WSW,244,0.0,2.0,98,0.00,,OVC095,-99.99,VWS V12.07,2013-02-27 18:33:00,
2013-02-27 13:42:00,41.2,40.7,29.47,NNW,329,0.0,2.0,98,0.00,,OVC095,-99.99,VWS V12.07,2013-02-27 18:42:00,
2013-02-27 13:52:00,41.5,41.2,29.47,NNW,329,0.0,2.0,99,0.00,,OVC095,-99.99,VWS V12.07,2013-02-27 18:52:00,
2013-02-27 14:04:00,42.2,41.9,29.48,West,281,2.0,5.0,99,0.00,,OVC095,-99.99,VWS V12.07,2013-02-27 19:04:00,
2013-02-27 14:12:00,42.3,42.0,29.48,SW,217,0.0,8.0,99,0.00,,OVC095,-99.99,VWS V12.07,2013-02-27 19:12:00,
2013-02-27 14:22:00,42.5,42.0,29.48,SE,130,0.0,8.0,98,0.00,,OVC095,-99.99,VWS V12.07,2013-02-27 19:22:00,
2013-02-27 14:33:00,42.1,41.6,29.47,South,181,0.0,5.0,98,0.00,,OVC095,-99.99,VWS V12.07,2013-02-27 19:33:00,
2013-02-27 14:42:00,42.8,42.3,29.47,SW,233,0.0,5.0,98,0.00,,OVC095,-99.99,VWS V12.07,2013-02-27 19:42:00,
2013-02-27 14:52:00,42.9,42.4,29.47,NE,48,2.0,6.0,98,0.00,,OVC095,-99.99,VWS V12.07,2013-02-27 19:52:00,
2013-02-27 15:03:00,42.8,41.7,29.46,SW,215,0.0,10.0,96,0.00,,OVC095,-99.99,VWS V12.07,2013-02-27 20:03:00,
2013-02-27 15:12:00,42.2,41.1,29.46,SW,216,0.0,10.0,96,0.00,,OVC095,-99.99,VWS V12.07,2013-02-27 20:12:00,
2013-02-27 15:22:00,42.3,41.2,29.45,SW,216,0.0,10.0,96,0.00,,OVC095,-99.99,VWS V12.07,2013-02-27 20:22:00,
2013-02-27 15:33:00,42.5,41.4,29.45,SE,128,0.0,5.0,96,0.00,,OVC095,-99.99,VWS V12.07,2013-02-27 20:33:00,
2013-02-27 15:42:00,42.6,41.5,29.45,SW,222,1.0,11.0,96,0.00,,OVC095,-99.99,VWS V12.07,2013-02-27 20:42:00,
2013-02-27 15:52:00,42.9,41.6,29.45,SSW,205,0.0,11.0,95,0.00,,OVC095,-99.99,VWS V12.07,2013-02-27 20:52:00,
2013-02-27 16:04:00,42.5,41.2,29.46,SSE,155,0.0,1.0,95,0.00,,OVC095,-99.99,VWS V12.07,2013-02-27 21:04:00,
2013-02-27 16:12:00,42.3,40.7,29.46,SW,230,0.0,2.0,94,0.00,,OVC095,-99.99,VWS V12.07,2013-02-27 21:12:00,
2013-02-27 16:22:00,41.6,40.0,29.47,SSE,148,0.0,2.0,94,0.00,,OVC095,-99.99,VWS V12.07,2013-02-27 21:22:00,
2013-02-27 16:34:00,40.9,39.6,29.47,SSE,150,0.0,0.0,95,0.00,,OVC095,-99.99,VWS V12.07,2013-02-27 21:34:00,
2013-02-27 16:42:00,40.6,39.5,29.47,SSE,150,0.0,0.0,96,0.00,,OVC095,-99.99,VWS V12.07,2013-02-27 21:42:00,
2013-02-27 16:52:00,40.2,39.2,29.48,SSE,150,0.0,0.0,96,0.00,,OVC095,-99.99,VWS V12.07,2013-02-27 21:52:00,
2013-02-27 17:03:00,40.3,39.2,29.48,SSE,150,0.0,0.0,96,0.00,,OVC095,-99.99,VWS V12.07,2013-02-27 22:03:00,
2013-02-27 17:12:00,40.1,39.0,29.48,SSE,150,0.0,0.0,96,0.00,,OVC095,-99.99,VWS V12.07,2013-02-27 22:12:00,
2013-02-27 17:22:00,40.1,39.0,29.48,SSE,150,0.0,0.0,96,0.00,,OVC095,-99.99,VWS V12.07,2013-02-27 22:22:00,
2013-02-27 17:33:00,39.8,38.8,29.49,SSE,150,0.0,0.0,96,0.00,,OVC095,-99.99,VWS V12.07,2013-02-27 22:33:00,
2013-02-27 17:42:00,39.5,38.5,29.49,SSE,150,0.0,0.0,96,0.00,,OVC095,-99.99,VWS V12.07,2013-02-27 22:42:00,
2013-02-27 17:52:00,39.3,38.3,29.50,SSE,150,0.0,0.0,96,0.00,,OVC095,-99.99,VWS V12.07,2013-02-27 22:52:00,
2013-02-27 18:04:00,39.6,38.8,29.50,SSE,150,0.0,0.0,97,0.00,,OVC095,-99.99,VWS V12.07,2013-02-27 23:04:00,
2013-02-27 18:12:00,39.9,39.1,29.50,SSE,150,0.0,0.0,97,0.00,,OVC095,-99.99,VWS V12.07,2013-02-27 23:12:00,
2013-02-27 18:22:00,39.1,38.1,29.51,SSE,150,0.0,0.0,96,0.00,,OVC095,-99.99,VWS V12.07,2013-02-27 23:22:00,
2013-02-27 18:34:00,39.1,38.3,29.51,SSE,150,0.0,0.0,97,0.00,,OVC095,-99.99,VWS V12.07,2013-02-27 23:34:00,
2013-02-27 18:42:00,39.1,38.3,29.51,SSE,150,0.0,0.0,97,0.00,,OVC095,-99.99,VWS V12.07,2013-02-27 23:42:00,
2013-02-27 18:52:00,38.9,38.1,29.52,SSE,150,0.0,0.0,97,0.00,,OVC095,-99.99,VWS V12.07,2013-02-27 23:52:00,
2013-02-27 19:04:00,38.5,37.7,29.52,SSE,150,0.0,0.0,97,0.00,,OVC095,-99.99,VWS V12.07,2013-02-28 00:04:00,
2013-02-27 19:12:00,38.6,37.8,29.52,SSE,150,0.0,0.0,97,0.00,,OVC095,-99.99,VWS V12.07,2013-02-28 00:12:00,
2013-02-27 19:22:00,39.8,39.3,29.53,SE,144,0.0,3.0,98,0.00,,OVC095,-99.99,VWS V12.07,2013-02-28 00:22:00,
2013-02-27 19:33:00,39.9,39.4,29.52,SSE,160,0.0,0.0,98,0.00,,OVC095,-99.99,VWS V12.07,2013-02-28 00:33:00,
2013-02-27 19:42:00,39.8,39.3,29.52,SSE,160,0.0,1.0,98,0.00,,OVC095,-99.99,VWS V12.07,2013-02-28 00:42:00,
2013-02-27 19:52:00,39.5,39.0,29.53,SSE,160,0.0,1.0,98,0.00,,OVC095,-99.99,VWS V12.07,2013-02-28 00:52:00,
2013-02-27 20:04:00,39.5,39.0,29.53,SSE,160,0.0,0.0,98,0.00,,OVC095,-99.99,VWS V12.07,2013-02-28 01:04:00,
2013-02-27 20:12:00,39.3,38.8,29.53,SSE,160,0.0,0.0,98,0.00,,OVC095,-99.99,VWS V12.07,2013-02-28 01:12:00,
2013-02-27 20:22:00,39.6,39.1,29.53,NW,309,0.0,2.0,98,0.00,,OVC095,-99.99,VWS V12.07,2013-02-28 01:22:00,
2013-02-27 20:34:00,39.1,38.6,29.54,NW,308,0.0,0.0,98,0.00,,OVC095,-99.99,VWS V12.07,2013-02-28 01:34:00,
2013-02-27 20:42:00,39.2,38.7,29.54,NW,309,0.0,1.0,98,0.00,,OVC095,-99.99,VWS V12.07,2013-02-28 01:42:00,
2013-02-27 20:52:00,39.6,39.1,29.54,NW,308,0.0,1.0,98,0.00,,OVC095,-99.99,VWS V12.07,2013-02-28 01:52:00,
2013-02-27 21:04:00,39.6,39.1,29.54,WSW,240,0.0,1.0,98,0.00,,OVC095,-99.99,VWS V12.07,2013-02-28 02:04:00,
2013-02-27 21:12:00,39.5,39.0,29.54,SSE,155,3.0,3.0,98,0.00,,OVC095,-99.99,VWS V12.07,2013-02-28 02:12:00,
2013-02-27 21:22:00,39.6,39.1,29.54,SE,144,0.0,3.0,98,0.00,,OVC095,-99.99,VWS V12.07,2013-02-28 02:22:00,
2013-02-27 21:33:00,39.5,39.0,29.55,ESE,116,1.0,2.0,98,0.00,,OVC095,-99.99,VWS V12.07,2013-02-28 02:33:00,
2013-02-27 21:42:00,39.9,39.4,29.55,South,176,4.0,6.0,98,0.00,,OVC095,-99.99,VWS V12.07,2013-02-28 02:42:00,
2013-02-27 21:52:00,39.6,38.8,29.55,ESE,121,0.0,6.0,97,0.00,,OVC095,-99.99,VWS V12.07,2013-02-28 02:52:00,
2013-02-27 22:04:00,39.5,38.5,29.55,ESE,121,0.0,0.0,96,0.00,,OVC095,-99.99,VWS V12.07,2013-02-28 03:04:00,
2013-02-27 22:12:00,39.3,38.3,29.55,ESE,121,0.0,0.0,96,0.00,,OVC095,-99.99,VWS V12.07,2013-02-28 03:12:00,
2013-02-27 22:22:00,38.6,37.6,29.55,ESE,121,0.0,1.0,96,0.00,,OVC095,-99.99,VWS V12.07,2013-02-28 03:22:00,
2013-02-27 22:34:00,38.2,37.2,29.55,ESE,121,0.0,0.0,96,0.00,,OVC095,-99.99,VWS V12.07,2013-02-28 03:34:00,
2013-02-27 22:42:00,38.3,37.3,29.55,ESE,121,0.0,0.0,96,0.00,,OVC095,-99.99,VWS V12.07,2013-02-28 03:42:00,
2013-02-27 22:52:00,37.8,36.8,29.55,ESE,121,0.0,0.0,96,0.00,,OVC095,-99.99,VWS V12.07,2013-02-28 03:52:00,
2013-02-27 23:04:00,37.5,36.5,29.55,ESE,121,0.0,0.0,96,0.00,,OVC095,-99.99,VWS V12.07,2013-02-28 04:04:00,
2013-02-27 23:12:00,37.6,36.6,29.55,ESE,121,0.0,0.0,96,0.00,,OVC095,-99.99,VWS V12.07,2013-02-28 04:12:00,
2013-02-27 23:22:00,37.5,36.5,29.55,ESE,121,0.0,0.0,96,0.00,,OVC095,-99.99,VWS V12.07,2013-02-28 04:22:00,
2013-02-27 23:33:00,37.3,36.3,29.55,ESE,121,0.0,0.0,96,0.00,,OVC095,-99.99,VWS V12.07,2013-02-28 04:33:00,
2013-02-27 23:42:00,37.3,36.3,29.55,ESE,121,0.0,0.0,96,0.00,,OVC095,-99.99,VWS V12.07,2013-02-28 04:42:00,
2013-02-27 23:52:00,36.8,35.8,29.55,ESE,121,0.0,0.0,96,0.00,,OVC095,-99.99,VWS V12.07,2013-02-28 04:52:00,